SCP
0 0 0 0 0 0 0 0 0 0 0 -0 -0 -0 0 -0 -0 0 0 0 0 -0 0 0 0 0 0 -0 -0 0 0 0 -0 0 0 0 0 0 0 0 -0 0 0 0 0 0 0 0 0 0 0 0 0 0
0 0 0 0 0 0 0 0 0 0 0 -0 0 0 0 0 -0 0 0 0 0 0 0 0 0 0 0 0 0 0 0 0 0 0 0 0 0 0 0 0 0 0 0 -0 0 0 0 0 0 0 0 0 0 0
0 0 0 0 0 0 0 0 0 0 0 0 0 0 0 0 0 0 0 0 0 -0 0 0 -0 0 0 0 0 0 0 0 0 0 0 0 0 0 0 0 0 0 0 0 0 0 0 0 0 0 0 0 0 0
0 0 0 0 0 0 0 0 0 0 0 0 0 0 0 0 0 0 0 0 0 0 0 -0 0 0 0 0 0 0 0 0 0 0 -0 0 0 0 0 0 0 0 0 0 0 0 0 0 0 0 0 0 0 0
0 0 0 0 0 0 0 0 0 0 0 0 0 0 0 0 0 0 0 0 0 0 0 -0 -0 -0 0 0 0 0 0 0 0 0 0 0 0 0 0 0 0 0 0 0 0 0 0 0 0 0 0 0 0 0
0 0 0 0 0 0 0 0 0 0 0 0 0 0 0 0 0 0 0 0 0 0 0 0 -0 0 0 0 0 0 0 0 -0 -0 0 0 0 0 0 0 0 0 0 0 0 0 0 0 0 0 0 0 0 0
0 0 0 0 0 0 0 0 0 0 0 0 0 0 0 0 0 0 0 0 0 0 0 0 0 -0 -0 -0 -0 0 0 0 -0 -0 0 -0 0 0 0 0 0 0 0 0 0 0 0 0 0 0 0 0 0 0
0 0 0 0 0 0 0 0 0 0 0 0 0 0 0 0 0 0 0 0 0 0 0 -0 0 0 -0 -0 0 0 0 0 0 -0 0 0 0 -0 -0 0 0 0 0 0 0 0 0 0 0 0 0 0 0 0
0 0 0 0 0 0 0 0 0 0 0 0 0 0 0 0 0 0 0 0 0 0 0 -0 0 0 -0 -0 -0 -0 -0 0 -0 0 0 -0 -0 0 -0 0 -0 -0 -0 -0 0 0 0 0 0 0 0 0 0 0
0 0 0 0 0 0 0 0 0 0 0 0 0 0 0 0 0 0 0 0 0 0 0 0 0 0 -0 -0 0 0 -0 -0 0 -0 -0 -0 -0 -0 -0 0 0 -0 0 0 -0 0 0 0 0 0 0 0 0 0
0 0 0 0 0 0 0 0 0 0 0 0 0 0 0 0 0 0 0 0 0 0 0 -0 0 0 0 0 0 -0 -0 0 0 -0 -0 0 -0 -0 -0 -0 0 -0 0 0 0 0 0 -0 0 0 0 0 0 0
0 0 0 0 0 0 0 0 0 0 0 0 0 0 0 0 0 0 0 0 0 0 0 -0 -0 0 0 0 -0 -0 -0 -0 0 -0 -0 0 0 -0 -0 -0 -0 -0 -0 0 0 0 0 -0 -0 0 0 0 0 0
0 0 0 -0 -0 0 0 0 0 0 0 0 0 0 0 0 0 0 0 0 0 0 0 0 0 0 0 -0 0 0 -0 -0 0 -0 0 -0 -0 -0 -0 -0 -0 -0 -0 -0 -0 0 0 0 0 -0 -0 0 0 0
0 0 0 0 0 0 0 0 0 0 0 0 0 0 0 0 0 0 0 0 0 0 0 0 0 0 0 0 0 0 0 0 0 0 0 0 -0 -0 -0 -0 -0 -0 -0 -0 -0 -0 -0 0 0 0 0 0 0 0
0 0 0 0 0 0 0 0 0 0 0 0 0 0 0 0 0 0 0 0 0 0 0 0 0 0 0 0 0 0 0 0 0 0 0 0 -0 -0 -0 -0 -0 -0 -0 -0 -0 0 0 0 0 0 0 0 0 0
0 0 0 0 0 0 0 0 0 0 0 0 0 0 0 0 0 0 0 0 0 0 0 0 0 0 0 0 0 0 0 0 0 0 0 0 0 0 0 0 0 0 0 0 0 0 0 0 0 0 0 0 0 0
0 0 0 0 0 0 0 0 0 0 0 0 0 0 0 0 0 0 0 0 0 0 0 0 0 0 0 0 0 0 0 0 0 0 0 0 0 0 0 0 0 0 0 0 0 0 0 0 0 0 0 0 0 0
0 0 0 0 0 0 0 0 0 0 0 0 0 0 0 0 0 0 0 0 0 0 0 0 0 0 0 0 0 0 0 0 0 0 0 0 0 0 0 0 0 0 0 0 0 0 0 0 0 0 0 0 0 0
0 0 0 0 0 0 0 0 0 0 0 0 0 0 0 0 0 0 0 0 0 1 0 0 0 0 0 0 0 0 0 0 0 0 0 0 0 0 0 0 0 0 0 0 0 0 0 0 0 0 0 0 0 0
0 -0 -0 0 0 0 0 0 0 0 0 0 0 0 0 0 0 0 0 0 0 0 0 0 0 0 0 0 0 0 0 0 0 0 0 0 0 1 0 0 0 0 0 0 0 0 0 0 0 0 0 0 0 0
-0 0 -0 0 0 0 0 0 0 0 0 0 0 0 0 0 0 0 0 0 0 0 0 0 0 0 0 0 0 0 1 0 0 0 0 0 0 0 0 0 0 0 0 0 0 0 0 0 0 0 0 0 0 0
0 0 0 0 0 0 0 0 0 0 0 0 0 0 0 0 0 0 0 0 0 0 0 0 0 0 0 0 0 1 0 0 0 0 0 0 0 0 0 0 0 0 0 0 0 0 0 0 0 0 0 0 0 0
0 0 0 0 0 0 -0 0 0 0 0 0 0 0 0 0 0 0 0 0 0 0 0 0 0 0 0 0 0 0 0 0 0 0 0 0 0 0 0 0 0 0 0 0 0 0 0 0 0 0 0 0 0 0
0 0 0 0 0 0 0 0 0 0 -0 -0 0 -0 0 0 0 0 0 0 0 0 0 0 0 0 0 0 0 0 0 0 0 0 0 0 0 0 0 0 0 0 0 0 0 0 0 0 0 0 0 0 0 0
0 0 0 0 0 0 0 0 0 0 -0 -0 -0 0 0 0 0 0 0 0 0 0 0 0 0 0 0 0 0 0 1 0 0 0 0 0 0 0 0 0 0 0 0 0 0 0 0 0 0 -0 -0 0 0 0
0 0 0 -0 0 0 0 0 0 0 0 0 0 0 0 0 0 0 0 0 0 0 0 0 0 0 0 0 0 0 0 0 0 0 0 0 0 0 0 0 0 0 0 0 0 0 0 0 0 0 -0 0 -0 -0
0 0 0 0 0 0 0 0 0 0 0 0 0 0 0 -0 0 0 0 -0 0 0 0 0 0 0 0 0 0 0 0 0 0 0 0 0 0 0 0 0 0 0 0 0 0 -0 0 0 0 -0 0 0 0 -0
0 0 0 0 0 0 0 0 0 0 0 -0 0 0 0 0 0 0 0 0 -0 0 0 0 0 0 0 0 0 0 0 0 0 0 0 0 0 0 0 0 0 -0 0 0 0 0 0 -0 -0 -0 0 0 0 0
0 0 0 0 0 0 0 0 0 0 0 0 0 0 0 0 0 0 0 0 0 -0 -0 0 0 0 0 0 0 0 0 0 0 0 0 0 0 0 0 0 0 -0 -0 -0 -0 -0 -0 -0 -0 0 0 0 0 0
0 0 0 0 0 0 0 0 0 0 0 0 0 -0 0 0 0 0 0 0 0 0 0 0 0 0 0 0 0 0 0 0 -0 0 0 0 0 0 0 0 -0 -0 -0 -0 0 -0 -0 -0 -0 -0 -0 0 0 0
0 0 0 0 0 0 0 0 0 0 0 0 0 0 0 0 0 0 0 0 0 0 0 0 0 0 0 0 0 0 0 0 0 0 0 0 0 0 0 0 0 -0 0 -0 -0 0 0 -0 -0 -0 0 -0 0 -0
0 0 0 0 0 0 0 0 0 0 0 0 0 -0 -0 -0 -0 0 0 0 0 0 0 -0 0 0 0 0 0 0 0 0 0 0 0 0 0 0 0 -0 -0 0 0 -0 -0 0 0 0 -0 -0 0 0 0 0
0 0 0 0 0 0 0 0 0 0 0 -0 -0 0 -0 -0 0 -0 0 -0 0 -0 0 0 0 0 0 0 0 0 0 0 0 0 0 0 0 -0 -0 0 0 0 0 -0 -0 -0 0 0 0 -0 0 -0 0 -0
Wind_Speed_500mb
48 46 49 49 50 49 48 40 34 26 23 22 15 11 10 8 4 4 6 8 8 21 13 4 1 3 5 11 14 16 15 18 14 8 9 8 7 6 14 19 19 10 13 12 10 9 16 24 7 10 11 11 16 15
47 48 52 50 50 50 50 45 37 28 24 26 19 16 12 10 9 7 4 9 15 9 14 5 4 3 1 5 15 10 15 11 15 9 3 10 3 10 15 17 7 13 12 6 11 5 10 18 18 12 10 6 14 13
47 49 53 51 48 50 50 43 35 27 24 29 23 20 14 13 14 16 9 9 9 17 15 18 18 6 2 4 7 18 1 7 7 12 22 4 3 7 10 12 16 6 2 11 3 8 16 16 16 17 13 11 12 16
47 48 50 50 47 48 45 42 33 26 23 30 26 22 17 15 16 16 9 13 11 16 20 29 14 11 4 1 6 4 7 7 11 13 24 10 8 4 10 6 13 12 10 5 7 10 12 13 15 16 18 13 15 19
47 47 46 47 47 42 40 41 32 27 23 31 27 23 18 16 17 18 13 13 14 11 10 19 16 13 10 5 3 6 4 8 16 19 14 13 4 3 16 10 14 15 2 7 9 25 11 13 11 12 15 16 15 20
39 42 45 42 37 39 37 41 28 27 26 32 27 23 19 16 16 11 11 17 15 13 14 9 17 16 15 10 4 2 6 6 14 14 5 4 3 9 6 7 3 3 1 2 9 12 9 15 11 11 13 13 14 19
34 36 36 32 35 37 29 19 19 22 31 32 26 22 19 18 24 19 3 8 25 19 15 11 10 18 22 16 16 11 3 6 15 4 9 9 10 11 11 7 5 9 12 12 17 19 16 17 13 10 10 13 13 18
28 27 25 30 36 30 20 18 17 25 32 27 23 19 15 16 22 18 13 8 22 21 20 8 6 14 23 24 15 7 16 6 11 7 4 12 6 8 5 18 18 18 19 20 20 16 9 16 12 11 11 12 12 13
20 22 23 28 28 20 18 19 19 29 30 25 21 16 12 12 16 18 16 9 24 14 10 15 18 6 20 25 10 13 6 9 7 10 7 4 5 7 15 19 17 24 25 22 19 15 13 16 15 14 14 13 16 14
21 20 20 22 19 16 19 15 25 31 28 27 25 8 13 18 17 11 8 12 17 23 18 19 28 8 21 19 12 7 8 7 6 6 6 9 12 31 18 15 17 25 26 20 22 17 15 13 13 13 15 15 17 13
18 18 18 16 14 8 16 26 31 33 31 24 13 5 4 18 13 12 13 15 18 13 22 31 36 14 13 10 6 4 4 3 5 8 6 5 10 21 24 21 20 24 25 21 19 13 16 13 13 12 11 9 8 9
17 20 19 14 12 9 22 28 35 35 17 17 10 11 14 11 13 12 11 11 11 16 14 31 30 17 14 9 8 8 7 5 9 7 6 5 8 17 24 26 25 26 26 23 18 16 16 16 15 13 13 12 11 10
18 21 21 15 13 13 23 32 32 31 24 15 11 12 11 12 0 12 20 11 12 13 17 23 22 21 9 18 7 4 8 10 3 7 5 12 23 19 24 24 27 29 27 24 20 19 18 17 15 14 14 14 13 12
15 17 17 16 15 17 24 28 28 28 22 8 11 3 11 12 13 17 19 18 22 17 28 32 31 19 14 12 9 9 6 1 8 8 10 9 26 24 25 26 29 33 32 30 27 24 22 20 19 18 18 17 18 18
14 13 14 13 17 20 21 23 27 31 11 8 9 8 18 24 16 15 19 5 12 17 32 36 26 17 15 8 8 6 8 9 9 8 5 23 24 23 25 27 30 31 34 33 31 28 26 24 22 20 19 18 19 18
14 9 7 4 14 21 20 16 20 21 5 7 12 15 18 16 23 24 23 25 26 26 34 31 15 9 10 8 11 13 8 9 6 8 3 19 16 18 25 29 32 32 33 35 34 33 30 25 24 22 20 20 20 19
15 10 7 6 19 28 23 18 9 11 12 12 18 29 23 28 18 20 26 26 28 32 18 19 12 12 9 9 11 9 15 11 4 6 6 10 8 19 25 30 34 37 37 37 36 35 33 30 26 24 24 22 19 18
21 16 15 12 12 16 16 11 6 10 17 24 21 24 22 19 27 21 10 6 32 38 33 13 9 15 12 17 16 10 16 11 12 16 19 13 8 16 26 31 33 38 39 37 37 36 35 32 29 26 24 23 20 18
15 15 16 21 26 12 11 17 13 11 27 26 30 34 19 18 20 26 11 21 25 14 19 9 6 15 16 21 24 15 27 21 13 11 12 28 23 24 28 30 32 34 35 30 29 30 30 29 25 22 23 23 24 22
19 30 26 24 22 10 8 9 14 13 13 14 29 29 28 28 26 27 29 24 31 28 21 12 15 27 23 21 28 25 15 11 17 37 31 35 37 28 30 33 38 44 55 52 55 48 31 26 24 24 26 28 28 24
19 27 35 28 18 12 9 9 16 17 16 18 21 29 23 24 32 28 29 33 33 37 29 36 44 39 33 44 26 19 22 27 33 39 44 48 47 38 27 31 39 46 48 58 66 67 51 36 30 29 30 30 26 22
15 26 25 32 11 8 14 17 14 11 13 16 19 23 20 26 27 32 34 37 40 38 40 44 42 37 34 28 16 18 26 32 37 40 41 43 39 40 35 36 41 48 54 61 72 70 56 39 37 32 32 31 28 24
26 31 10 12 11 18 16 18 14 17 8 10 24 14 15 23 27 16 22 31 35 38 42 44 37 17 21 29 26 26 28 30 35 36 34 30 32 32 29 28 34 41 48 46 56 53 50 44 34 33 32 32 29 26
23 21 14 15 18 12 13 14 12 9 14 24 8 12 13 6 13 10 16 34 34 29 32 19 22 26 31 32 33 28 20 19 19 20 19 17 19 18 14 27 41 54 58 62 60 60 55 42 34 36 34 34 31 27
11 16 11 13 16 12 10 9 21 11 13 19 18 8 5 7 5 8 12 9 12 11 12 17 20 28 30 28 23 13 10 13 21 25 21 14 12 13 9 18 37 52 69 69 64 61 57 41 40 37 38 35 32 28
8 15 13 20 10 11 7 5 9 12 4 4 2 9 3 6 9 2 7 8 5 8 9 7 13 19 17 17 22 24 13 11 19 24 23 16 17 18 19 30 39 52 57 65 71 65 48 44 43 39 38 36 32 26
7 8 13 12 6 11 11 15 18 5 7 6 3 4 7 8 4 5 12 12 2 4 7 8 12 16 19 21 22 20 19 13 14 13 9 7 12 16 16 24 36 45 57 55 63 55 47 45 42 38 35 33 31 32
9 7 15 17 22 16 3 7 6 6 7 9 8 5 4 5 4 17 9 10 8 7 8 9 9 7 7 8 8 3 2 4 3 5 5 7 18 12 14 14 27 49 54 56 51 47 42 40 38 36 34 32 31 31
17 17 19 15 13 5 10 13 7 4 7 7 6 4 5 4 7 8 9 8 5 6 8 6 3 2 5 7 9 6 7 9 12 6 1 5 9 12 16 25 41 44 48 43 39 38 31 38 38 38 36 31 30 30
16 16 16 16 18 13 19 12 12 8 11 1 7 12 10 11 8 8 6 0 4 6 6 5 6 7 5 4 5 3 2 1 5 4 9 10 7 12 24 26 29 32 31 37 38 38 34 31 28 34 34 34 32 29
4 12 19 24 18 24 18 14 17 14 21 20 15 9 16 8 3 2 2 3 3 3 4 4 7 8 8 5 3 4 6 2 3 2 2 1 5 18 28 27 26 25 26 32 33 35 37 38 39 40 39 37 33 31
14 16 13 14 25 26 24 22 21 20 19 15 14 16 11 3 10 8 2 1 0 1 6 3 2 3 6 6 6 8 9 1 4 4 7 7 6 12 22 26 26 22 25 30 31 30 32 36 40 39 39 40 39 37
19 18 19 19 14 10 20 17 16 16 17 7 4 10 15 12 6 8 6 5 6 9 8 6 5 2 4 5 8 10 14 14 18 22 21 18 18 19 21 23 23 23 25 26 27 29 31 35 37 40 41 41 39 41
Wind_Direction_500mb
299 306 312 315 317 318 319 317 311 301 277 260 254 259 258 260 237 184 237 240 195 277 110 247 183 282 229 257 305 60 269 195 245 285 306 302 311 342 298 312 151 151 227 293 274 152 247 358 298 351 0 329 14 37
290 300 304 310 313 313 313 311 300 291 269 248 239 246 242 238 220 186 200 278 196 260 77 165 150 129 39 330 308 286 319 301 344 303 349 317 231 260 255 273 128 273 351 191 125 294 71 52 48 27 349 318 4 37
283 293 299 307 309 310 309 306 295 275 265 237 228 235 231 225 219 207 210 248 196 221 211 211 185 161 150 346 339 301 350 333 250 292 313 233 308 285 274 280 310 162 217 272 3 87 79 56 55 46 45 53 66 79
279 289 295 300 304 305 304 303 292 263 255 227 219 228 224 216 220 211 205 239 224 267 258 157 183 185 195 354 18 346 314 279 264 247 261 276 246 163 270 352 280 45 154 201 99 146 141 79 61 61 71 82 88 93
281 285 291 297 301 298 299 305 279 248 236 216 212 222 217 209 213 212 223 236 223 259 294 155 167 206 193 171 76 32 347 272 238 222 224 241 46 270 241 308 260 189 341 201 187 207 161 111 94 79 81 91 111 121
278 283 290 297 300 298 294 299 262 232 215 204 204 214 208 200 195 178 217 228 217 230 282 232 123 178 198 201 198 356 345 293 267 277 257 8 12 267 268 238 161 73 242 29 142 162 119 138 121 101 95 101 115 126
274 284 293 297 300 301 289 294 226 223 197 192 198 205 201 197 187 211 338 168 203 199 226 266 188 184 204 211 223 238 264 313 290 309 262 277 164 226 271 246 242 183 170 158 155 155 165 180 156 151 132 120 120 139
274 281 289 295 300 300 262 245 252 196 183 180 191 193 197 200 206 219 249 236 182 191 230 256 146 175 190 222 183 229 268 223 194 311 223 243 143 250 265 243 228 183 181 176 177 199 226 172 184 181 179 172 160 161
284 292 291 299 305 299 229 223 203 174 171 173 176 163 160 174 195 191 222 206 184 229 245 226 249 111 170 234 139 205 252 261 93 253 191 224 96 227 235 236 208 195 198 194 188 192 199 199 204 213 218 213 228 184
306 301 295 298 302 305 209 207 172 165 162 165 157 172 196 184 205 179 190 183 186 217 235 269 240 156 188 175 208 221 166 277 270 119 108 220 231 233 219 219 208 198 204 201 197 194 206 210 221 224 230 232 234 229
301 315 297 284 281 291 195 175 166 162 159 158 197 201 147 156 156 198 196 205 195 211 211 224 249 163 200 224 118 210 338 47 251 141 253 241 257 176 191 193 193 192 198 203 202 206 211 214 196 189 184 180 187 204
300 312 281 262 265 246 190 172 169 163 162 192 174 134 144 188 213 202 199 206 210 214 193 198 205 205 132 202 247 156 243 153 254 97 244 278 193 149 175 182 185 186 187 191 198 198 196 194 195 192 190 198 196 193
282 299 287 244 242 195 176 178 179 177 168 172 197 183 193 190 306 217 197 191 200 202 153 185 173 183 131 216 209 165 221 226 47 224 226 228 125 162 177 183 187 189 195 200 203 204 205 208 215 224 230 232 237 234
271 301 296 231 215 196 188 188 184 176 171 220 188 220 213 194 220 218 219 213 206 172 167 181 172 180 182 173 201 218 200 228 249 229 243 194 159 172 180 188 193 199 204 207 208 210 216 220 226 235 241 245 243 245
261 304 321 213 198 193 184 184 185 180 181 233 212 235 209 244 243 232 227 197 150 192 165 177 176 191 180 171 214 226 182 239 228 232 198 128 153 178 193 199 205 209 211 214 216 219 224 230 232 234 241 243 235 233
244 271 266 290 203 181 161 162 177 178 226 243 242 248 240 225 231 216 207 225 180 190 183 172 180 222 170 223 180 205 220 223 233 178 229 139 169 204 215 218 220 220 219 220 220 222 226 227 226 233 230 221 215 219
244 199 220 318 203 178 161 165 164 201 208 233 227 235 258 284 246 234 192 209 174 187 189 193 192 174 232 219 214 215 221 257 205 167 132 114 205 227 227 227 226 224 221 220 219 217 217 215 217 214 212 213 215 217
220 223 187 135 109 139 156 173 208 233 226 234 245 246 237 244 261 253 192 183 206 200 211 196 281 204 197 222 222 213 211 247 278 273 280 287 266 248 234 231 225 218 217 216 212 206 202 201 203 205 207 211 214 210
204 173 188 174 177 179 197 202 222 246 225 227 228 237 254 245 236 253 222 213 223 230 247 118 279 237 230 249 274 230 242 258 252 286 284 291 256 255 239 229 223 211 204 193 203 195 195 198 201 204 206 207 198 190
208 193 185 197 195 208 230 217 203 250 265 218 219 239 240 232 234 217 218 210 205 214 228 225 250 266 271 315 295 265 265 272 309 291 276 283 281 244 233 231 220 201 190 191 183 175 187 195 195 204 210 199 192 194
228 217 194 193 203 226 262 241 216 248 261 255 236 219 222 220 227 226 215 214 216 216 229 235 244 253 282 288 292 304 303 300 289 290 290 290 286 282 248 240 213 203 205 193 182 181 174 189 193 197 201 195 194 195
203 186 180 185 188 218 253 233 246 314 253 247 242 228 238 238 217 220 222 216 217 224 224 240 248 250 267 255 274 284 290 285 281 280 278 274 268 268 241 234 229 225 211 197 184 186 175 184 187 188 197 195 193 194
173 172 144 142 186 211 260 234 236 233 238 241 210 228 237 237 243 240 221 229 234 233 239 246 254 258 277 291 291 282 277 277 279 280 280 280 277 278 266 253 232 214 195 180 178 168 162 186 183 194 195 192 192 195
152 160 171 200 214 218 216 207 230 233 231 235 239 250 245 208 146 217 243 242 243 232 225 235 261 269 259 245 256 266 262 266 278 281 279 271 270 252 243 218 216 203 203 191 194 178 172 184 192 190 194 193 194 193
169 189 197 216 211 232 228 223 213 207 236 206 210 243 144 130 211 236 250 229 193 195 225 214 235 246 256 273 274 281 270 273 279 288 295 272 268 184 206 205 209 213 196 194 184 175 177 184 190 193 195 194 196 197
226 196 198 201 206 226 215 271 236 231 250 122 277 253 232 191 217 179 15 352 89 186 186 202 260 281 273 257 267 285 304 289 276 284 283 270 264 214 211 219 205 196 196 194 177 178 174 186 193 195 199 200 206 204
241 188 207 215 232 235 255 232 248 243 194 149 288 246 214 221 111 75 252 303 197 223 256 276 287 289 288 287 282 281 286 279 273 258 273 254 222 191 202 192 195 196 181 182 183 177 187 195 194 195 198 201 202 207
246 268 230 215 220 234 217 315 274 222 166 188 179 255 249 98 104 145 213 276 262 265 282 293 301 299 302 290 276 263 88 102 128 149 131 158 174 169 158 175 188 171 167 169 184 192 196 196 197 202 202 203 204 204
224 215 224 236 215 247 249 218 247 302 233 117 150 209 252 34 71 150 185 199 239 289 291 286 252 124 63 36 45 53 105 112 108 111 154 141 166 170 165 169 150 168 175 183 205 215 206 203 209 207 205 204 207 207
226 226 227 222 229 197 236 255 262 234 315 197 199 239 281 199 126 150 155 197 314 317 306 261 216 205 182 124 96 75 128 279 302 36 110 153 173 169 183 180 175 183 193 199 201 206 216 212 211 208 210 205 207 204
282 249 231 243 238 234 241 215 229 226 246 253 258 262 275 299 64 150 181 300 311 340 341 267 209 215 216 203 200 223 167 299 322 27 190 196 228 185 188 190 191 197 200 201 200 201 206 208 212 210 210 213 212 220
219 220 206 241 233 232 231 237 239 245 248 236 258 309 326 293 207 160 295 174 313 132 20 18 295 215 243 260 254 275 232 351 304 291 273 280 254 207 190 195 204 207 202 201 205 203 203 206 214 213 214 216 222 224
216 215 223 266 253 224 184 202 217 225 247 92 18 247 225 195 215 108 113 104 58 42 43 43 40 15 291 230 253 247 251 250 268 286 275 250 218 201 198 199 202 202 203 206 211 215 217 216 221 225 228 232 230 230
Wind_Speed_850mb
48 46 49 49 50 49 48 40 34 26 23 22 15 11 10 8 4 4 6 8 8 21 13 4 1 3 5 11 14 16 15 18 14 8 9 8 7 6 14 19 19 10 13 12 10 9 16 24 7 10 11 11 16 15
47 48 52 50 50 50 50 45 37 28 24 26 19 16 12 10 9 7 4 9 15 9 14 5 4 3 1 5 15 10 15 11 15 9 3 10 3 10 15 17 7 13 12 6 11 5 10 18 18 12 10 6 14 13
47 49 53 51 48 50 50 43 35 27 24 29 23 20 14 13 14 16 9 9 9 17 15 18 18 6 2 4 7 18 1 7 7 12 22 4 3 7 10 12 16 6 2 11 3 8 16 16 16 17 13 11 12 16
47 48 50 50 47 48 45 42 33 26 23 30 26 22 17 15 16 16 9 13 11 16 20 29 14 11 4 1 6 4 7 7 11 13 24 10 8 4 10 6 13 12 10 5 7 10 12 13 15 16 18 13 15 19
47 47 46 47 47 42 40 41 32 27 23 31 27 23 18 16 17 18 13 13 14 11 10 19 16 13 10 5 3 6 4 8 16 19 14 13 4 3 16 10 14 15 2 7 9 25 11 13 11 12 15 16 15 20
39 42 45 42 37 39 37 41 28 27 26 32 27 23 19 16 16 11 11 17 15 13 14 9 17 16 15 10 4 2 6 6 14 14 5 4 3 9 6 7 3 3 1 2 9 12 9 15 11 11 13 13 14 19
34 36 36 32 35 37 29 19 19 22 31 32 26 22 19 18 24 19 3 8 25 19 15 11 10 18 22 16 16 11 3 6 15 4 9 9 10 11 11 7 5 9 12 12 17 19 16 17 13 10 10 13 13 18
28 27 25 30 36 30 20 18 17 25 32 27 23 19 15 16 22 18 13 8 22 21 20 8 6 14 23 24 15 7 16 6 11 7 4 12 6 8 5 18 18 18 19 20 20 16 9 16 12 11 11 12 12 13
20 22 23 28 28 20 18 19 19 29 30 25 21 16 12 12 16 18 16 9 24 14 10 15 18 6 20 25 10 13 6 9 7 10 7 4 5 7 15 19 17 24 25 22 19 15 13 16 15 14 14 13 16 14
21 20 20 22 19 16 19 15 25 31 28 27 25 8 13 18 17 11 8 12 17 23 18 19 28 8 21 19 12 7 8 7 6 6 6 9 12 31 18 15 17 25 26 20 22 17 15 13 13 13 15 15 17 13
18 18 18 16 14 8 16 26 31 33 31 24 13 5 4 18 13 12 13 15 18 13 22 31 36 14 13 10 6 4 4 3 5 8 6 5 10 21 24 21 20 24 25 21 19 13 16 13 13 12 11 9 8 9
17 20 19 14 12 9 22 28 35 35 17 17 10 11 14 11 13 12 11 11 11 16 14 31 30 17 14 9 8 8 7 5 9 7 6 5 8 17 24 26 25 26 26 23 18 16 16 16 15 13 13 12 11 10
18 21 21 15 13 13 23 32 32 31 24 15 11 12 11 12 0 12 20 11 12 13 17 23 22 21 9 18 7 4 8 10 3 7 5 12 23 19 24 24 27 29 27 24 20 19 18 17 15 14 14 14 13 12
15 17 17 16 15 17 24 28 28 28 22 8 11 3 11 12 13 17 19 18 22 17 28 32 31 19 14 12 9 9 6 1 8 8 10 9 26 24 25 26 29 33 32 30 27 24 22 20 19 18 18 17 18 18
14 13 14 13 17 20 21 23 27 31 11 8 9 8 18 24 16 15 19 5 12 17 32 36 26 17 15 8 8 6 8 9 9 8 5 23 24 23 25 27 30 31 34 33 31 28 26 24 22 20 19 18 19 18
14 9 7 4 14 21 20 16 20 21 5 7 12 15 18 16 23 24 23 25 26 26 34 31 15 9 10 8 11 13 8 9 6 8 3 19 16 18 25 29 32 32 33 35 34 33 30 25 24 22 20 20 20 19
15 10 7 6 19 28 23 18 9 11 12 12 18 29 23 28 18 20 26 26 28 32 18 19 12 12 9 9 11 9 15 11 4 6 6 10 8 19 25 30 34 37 37 37 36 35 33 30 26 24 24 22 19 18
21 16 15 12 12 16 16 11 6 10 17 24 21 24 22 19 27 21 10 6 32 38 33 13 9 15 12 17 16 10 16 11 12 16 19 13 8 16 26 31 33 38 39 37 37 36 35 32 29 26 24 23 20 18
15 15 16 21 26 12 11 17 13 11 27 26 30 34 19 18 20 26 11 21 25 14 19 9 6 15 16 21 24 15 27 21 13 11 12 28 23 24 28 30 32 34 35 30 29 30 30 29 25 22 23 23 24 22
19 30 26 24 22 10 8 9 14 13 13 14 29 29 28 28 26 27 29 24 31 28 21 12 15 27 23 21 28 25 15 11 17 37 31 35 37 28 30 33 38 44 55 52 55 48 31 26 24 24 26 28 28 24
19 27 35 28 18 12 9 9 16 17 16 18 21 29 23 24 32 28 29 33 33 37 29 36 44 39 33 44 26 19 22 27 33 39 44 48 47 38 27 31 39 46 48 58 66 67 51 36 30 29 30 30 26 22
15 26 25 32 11 8 14 17 14 11 13 16 19 23 20 26 27 32 34 37 40 38 40 44 42 37 34 28 16 18 26 32 37 40 41 43 39 40 35 36 41 48 54 61 72 70 56 39 37 32 32 31 28 24
26 31 10 12 11 18 16 18 14 17 8 10 24 14 15 23 27 16 22 31 35 38 42 44 37 17 21 29 26 26 28 30 35 36 34 30 32 32 29 28 34 41 48 46 56 53 50 44 34 33 32 32 29 26
23 21 14 15 18 12 13 14 12 9 14 24 8 12 13 6 13 10 16 34 34 29 32 19 22 26 31 32 33 28 20 19 19 20 19 17 19 18 14 27 41 54 58 62 60 60 55 42 34 36 34 34 31 27
11 16 11 13 16 12 10 9 21 11 13 19 18 8 5 7 5 8 12 9 12 11 12 17 20 28 30 28 23 13 10 13 21 25 21 14 12 13 9 18 37 52 69 69 64 61 57 41 40 37 38 35 32 28
8 15 13 20 10 11 7 5 9 12 4 4 2 9 3 6 9 2 7 8 5 8 9 7 13 19 17 17 22 24 13 11 19 24 23 16 17 18 19 30 39 52 57 65 71 65 48 44 43 39 38 36 32 26
7 8 13 12 6 11 11 15 18 5 7 6 3 4 7 8 4 5 12 12 2 4 7 8 12 16 19 21 22 20 19 13 14 13 9 7 12 16 16 24 36 45 57 55 63 55 47 45 42 38 35 33 31 32
9 7 15 17 22 16 3 7 6 6 7 9 8 5 4 5 4 17 9 10 8 7 8 9 9 7 7 8 8 3 2 4 3 5 5 7 18 12 14 14 27 49 54 56 51 47 42 40 38 36 34 32 31 31
17 17 19 15 13 5 10 13 7 4 7 7 6 4 5 4 7 8 9 8 5 6 8 6 3 2 5 7 9 6 7 9 12 6 1 5 9 12 16 25 41 44 48 43 39 38 31 38 38 38 36 31 30 30
16 16 16 16 18 13 19 12 12 8 11 1 7 12 10 11 8 8 6 0 4 6 6 5 6 7 5 4 5 3 2 1 5 4 9 10 7 12 24 26 29 32 31 37 38 38 34 31 28 34 34 34 32 29
4 12 19 24 18 24 18 14 17 14 21 20 15 9 16 8 3 2 2 3 3 3 4 4 7 8 8 5 3 4 6 2 3 2 2 1 5 18 28 27 26 25 26 32 33 35 37 38 39 40 39 37 33 31
14 16 13 14 25 26 24 22 21 20 19 15 14 16 11 3 10 8 2 1 0 1 6 3 2 3 6 6 6 8 9 1 4 4 7 7 6 12 22 26 26 22 25 30 31 30 32 36 40 39 39 40 39 37
19 18 19 19 14 10 20 17 16 16 17 7 4 10 15 12 6 8 6 5 6 9 8 6 5 2 4 5 8 10 14 14 18 22 21 18 18 19 21 23 23 23 25 26 27 29 31 35 37 40 41 41 39 41
Wind_Direction_850mb
299 306 312 315 317 318 319 317 311 301 277 260 254 259 258 260 237 184 237 240 195 277 110 247 183 282 229 257 305 60 269 195 245 285 306 302 311 342 298 312 151 151 227 293 274 152 247 358 298 351 0 329 14 37
290 300 304 310 313 313 313 311 300 291 269 248 239 246 242 238 220 186 200 278 196 260 77 165 150 129 39 330 308 286 319 301 344 303 349 317 231 260 255 273 128 273 351 191 125 294 71 52 48 27 349 318 4 37
283 293 299 307 309 310 309 306 295 275 265 237 228 235 231 225 219 207 210 248 196 221 211 211 185 161 150 346 339 301 350 333 250 292 313 233 308 285 274 280 310 162 217 272 3 87 79 56 55 46 45 53 66 79
279 289 295 300 304 305 304 303 292 263 255 227 219 228 224 216 220 211 205 239 224 267 258 157 183 185 195 354 18 346 314 279 264 247 261 276 246 163 270 352 280 45 154 201 99 146 141 79 61 61 71 82 88 93
281 285 291 297 301 298 299 305 279 248 236 216 212 222 217 209 213 212 223 236 223 259 294 155 167 206 193 171 76 32 347 272 238 222 224 241 46 270 241 308 260 189 341 201 187 207 161 111 94 79 81 91 111 121
278 283 290 297 300 298 294 299 262 232 215 204 204 214 208 200 195 178 217 228 217 230 282 232 123 178 198 201 198 356 345 293 267 277 257 8 12 267 268 238 161 73 242 29 142 162 119 138 121 101 95 101 115 126
274 284 293 297 300 301 289 294 226 223 197 192 198 205 201 197 187 211 338 168 203 199 226 266 188 184 204 211 223 238 264 313 290 309 262 277 164 226 271 246 242 183 170 158 155 155 165 180 156 151 132 120 120 139
274 281 289 295 300 300 262 245 252 196 183 180 191 193 197 200 206 219 249 236 182 191 230 256 146 175 190 222 183 229 268 223 194 311 223 243 143 250 265 243 228 183 181 176 177 199 226 172 184 181 179 172 160 161
284 292 291 299 305 299 229 223 203 174 171 173 176 163 160 174 195 191 222 206 184 229 245 226 249 111 170 234 139 205 252 261 93 253 191 224 96 227 235 236 208 195 198 194 188 192 199 199 204 213 218 213 228 184
306 301 295 298 302 305 209 207 172 165 162 165 157 172 196 184 205 179 190 183 186 217 235 269 240 156 188 175 208 221 166 277 270 119 108 220 231 233 219 219 208 198 204 201 197 194 206 210 221 224 230 232 234 229
301 315 297 284 281 291 195 175 166 162 159 158 197 201 147 156 156 198 196 205 195 211 211 224 249 163 200 224 118 210 338 47 251 141 253 241 257 176 191 193 193 192 198 203 202 206 211 214 196 189 184 180 187 204
300 312 281 262 265 246 190 172 169 163 162 192 174 134 144 188 213 202 199 206 210 214 193 198 205 205 132 202 247 156 243 153 254 97 244 278 193 149 175 182 185 186 187 191 198 198 196 194 195 192 190 198 196 193
282 299 287 244 242 195 176 178 179 177 168 172 197 183 193 190 306 217 197 191 200 202 153 185 173 183 131 216 209 165 221 226 47 224 226 228 125 162 177 183 187 189 195 200 203 204 205 208 215 224 230 232 237 234
271 301 296 231 215 196 188 188 184 176 171 220 188 220 213 194 220 218 219 213 206 172 167 181 172 180 182 173 201 218 200 228 249 229 243 194 159 172 180 188 193 199 204 207 208 210 216 220 226 235 241 245 243 245
261 304 321 213 198 193 184 184 185 180 181 233 212 235 209 244 243 232 227 197 150 192 165 177 176 191 180 171 214 226 182 239 228 232 198 128 153 178 193 199 205 209 211 214 216 219 224 230 232 234 241 243 235 233
244 271 266 290 203 181 161 162 177 178 226 243 242 248 240 225 231 216 207 225 180 190 183 172 180 222 170 223 180 205 220 223 233 178 229 139 169 204 215 218 220 220 219 220 220 222 226 227 226 233 230 221 215 219
244 199 220 318 203 178 161 165 164 201 208 233 227 235 258 284 246 234 192 209 174 187 189 193 192 174 232 219 214 215 221 257 205 167 132 114 205 227 227 227 226 224 221 220 219 217 217 215 217 214 212 213 215 217
220 223 187 135 109 139 156 173 208 233 226 234 245 246 237 244 261 253 192 183 206 200 211 196 281 204 197 222 222 213 211 247 278 273 280 287 266 248 234 231 225 218 217 216 212 206 202 201 203 205 207 211 214 210
204 173 188 174 177 179 197 202 222 246 225 227 228 237 254 245 236 253 222 213 223 230 247 118 279 237 230 249 274 230 242 258 252 286 284 291 256 255 239 229 223 211 204 193 203 195 195 198 201 204 206 207 198 190
208 193 185 197 195 208 230 217 203 250 265 218 219 239 240 232 234 217 218 210 205 214 228 225 250 266 271 315 295 265 265 272 309 291 276 283 281 244 233 231 220 201 190 191 183 175 187 195 195 204 210 199 192 194
228 217 194 193 203 226 262 241 216 248 261 255 236 219 222 220 227 226 215 214 216 216 229 235 244 253 282 288 292 304 303 300 289 290 290 290 286 282 248 240 213 203 205 193 182 181 174 189 193 197 201 195 194 195
203 186 180 185 188 218 253 233 246 314 253 247 242 228 238 238 217 220 222 216 217 224 224 240 248 250 267 255 274 284 290 285 281 280 278 274 268 268 241 234 229 225 211 197 184 186 175 184 187 188 197 195 193 194
173 172 144 142 186 211 260 234 236 233 238 241 210 228 237 237 243 240 221 229 234 233 239 246 254 258 277 291 291 282 277 277 279 280 280 280 277 278 266 253 232 214 195 180 178 168 162 186 183 194 195 192 192 195
152 160 171 200 214 218 216 207 230 233 231 235 239 250 245 208 146 217 243 242 243 232 225 235 261 269 259 245 256 266 262 266 278 281 279 271 270 252 243 218 216 203 203 191 194 178 172 184 192 190 194 193 194 193
169 189 197 216 211 232 228 223 213 207 236 206 210 243 144 130 211 236 250 229 193 195 225 214 235 246 256 273 274 281 270 273 279 288 295 272 268 184 206 205 209 213 196 194 184 175 177 184 190 193 195 194 196 197
226 196 198 201 206 226 215 271 236 231 250 122 277 253 232 191 217 179 15 352 89 186 186 202 260 281 273 257 267 285 304 289 276 284 283 270 264 214 211 219 205 196 196 194 177 178 174 186 193 195 199 200 206 204
241 188 207 215 232 235 255 232 248 243 194 149 288 246 214 221 111 75 252 303 197 223 256 276 287 289 288 287 282 281 286 279 273 258 273 254 222 191 202 192 195 196 181 182 183 177 187 195 194 195 198 201 202 207
246 268 230 215 220 234 217 315 274 222 166 188 179 255 249 98 104 145 213 276 262 265 282 293 301 299 302 290 276 263 88 102 128 149 131 158 174 169 158 175 188 171 167 169 184 192 196 196 197 202 202 203 204 204
224 215 224 236 215 247 249 218 247 302 233 117 150 209 252 34 71 150 185 199 239 289 291 286 252 124 63 36 45 53 105 112 108 111 154 141 166 170 165 169 150 168 175 183 205 215 206 203 209 207 205 204 207 207
226 226 227 222 229 197 236 255 262 234 315 197 199 239 281 199 126 150 155 197 314 317 306 261 216 205 182 124 96 75 128 279 302 36 110 153 173 169 183 180 175 183 193 199 201 206 216 212 211 208 210 205 207 204
282 249 231 243 238 234 241 215 229 226 246 253 258 262 275 299 64 150 181 300 311 340 341 267 209 215 216 203 200 223 167 299 322 27 190 196 228 185 188 190 191 197 200 201 200 201 206 208 212 210 210 213 212 220
219 220 206 241 233 232 231 237 239 245 248 236 258 309 326 293 207 160 295 174 313 132 20 18 295 215 243 260 254 275 232 351 304 291 273 280 254 207 190 195 204 207 202 201 205 203 203 206 214 213 214 216 222 224
216 215 223 266 253 224 184 202 217 225 247 92 18 247 225 195 215 108 113 104 58 42 43 43 40 15 291 230 253 247 251 250 268 286 275 250 218 201 198 199 202 202 203 206 211 215 217 216 221 225 228 232 230 230